KE8FSY Weather Reports


time (UTC)temp
C
wind
direction
speed
KPH
gust
KPH
rain 1hr
cm
rain 24hr
cm
rain mn
cm
humidity
%
barometer
mb
20260906115012 22 109 3.2 9.7 0.00 0.00 0.00 86 1014.1
20260906114524 22 78 0.0 6.4 0.00 0.00 0.00 86 1013.9
20260906114013 22 78 1.6 6.4 0.00 0.00 0.00 86 1013.8
20260906113515 22 89 1.6 8.0 0.00 0.00 0.00 86 1013.8
20260906113029 22 81 3.2 8.0 0.00 0.00 0.00 86 1013.8
20260906112520 22 111 0.0 9.7 0.00 0.00 0.00 86 1013.8
20260906112019 22 326 1.6 9.7 0.00 0.00 0.00 87 1013.8
20260906111533 22 78 1.6 9.7 0.00 0.00 0.00 87 1013.6
20260906111015 22 87 0.0 3.2 0.00 0.00 0.00 87 1013.6
20260906110518 22 73 0.0 11.3 0.00 0.00 0.00 87 1013.5
20260906110033 22 55 3.2 11.3 0.00 0.00 0.00 87 1013.4
20260906105519 22 76 1.6 9.7 0.00 0.00 0.00 87 1013.3
20260906105014 22 52 4.8 9.7 0.00 0.00 0.00 87 1013.2
20260906104532 22 88 1.6 9.7 0.00 0.00 0.00 87 1013.2
20260906104014 22 56 3.2 9.7 0.00 0.00 0.00 87 1013.2
20260906103515 22 88 4.8 6.4 0.00 0.00 0.00 87 1013.1
20260906103028 22 72 0.0 3.2 0.00 0.00 0.00 88 1013.0
20260906102513 22 58 0.0 3.2 0.00 0.00 0.00 87 1013.0
20260906102018 22 68 0.0 3.2 0.00 0.00 0.00 87 1012.9
20260906101534 22 64 0.0 4.8 0.00 0.00 0.00 87 1012.9
20260906101007 22 64 0.0 4.8 0.00 0.00 0.00 87 1012.9
20260906100505 22 77 0.0 4.8 0.00 0.00 0.00 87 1012.9
20260906100012 22 82 0.0 11.3 0.00 0.00 0.00 87 1012.8
20260906095510 22 73 3.2 11.3 0.00 0.00 0.00 87 1012.7
20260906095008 22 37 0.0 6.4 0.00 0.00 0.00 87 1012.7
20260906094534 22 67 1.6 6.4 0.00 0.00 0.00 87 1012.7
20260906094009 22 82 1.6 4.8 0.00 0.00 0.00 87 1012.7
20260906093518 22 80 0.0 3.2 0.00 0.00 0.00 87 1012.7
20260906093033 22 80 0.0 4.8 0.00 0.00 0.00 87 1012.7
20260906092503 22 102 1.6 4.8 0.00 0.00 0.00 86 1012.7
20260906092003 22 86 1.6 9.7 0.00 0.00 0.00 86 1012.7
20260906091510 23 53 1.6 9.7 0.00 0.00 0.00 86 1012.8
20260906091006 23 72 1.6 6.4 0.00 0.00 0.00 86 1012.8
20260906090505 23 50 0.0 4.8 0.00 0.00 0.00 86 1012.8
20260906090010 23 47 1.6 6.4 0.00 0.00 0.00 86 1012.9
20260906085509 23 44 1.6 9.7 0.00 0.00 0.00 86 1012.9
20260906085009 23 76 4.8 9.7 0.00 0.00 0.00 86 1012.8
20260906084517 23 91 3.2 4.8 0.00 0.00 0.00 86 1012.8
20260906084011 23 38 0.0 4.8 0.00 0.00 0.00 86 1012.8
20260906083514 23 114 0.0 8.0 0.00 0.00 0.00 86 1012.7
20260906083033 23 88 1.6 8.0 0.00 0.00 0.00 86 1012.7
20260906082514 23 10 0.0 6.4 0.00 0.00 0.00 86 1012.7
20260906082012 23 29 1.6 8.0 0.00 0.00 0.00 86 1012.7
20260906081503 23 15 0.0 8.0 0.00 0.00 0.00 86 1012.7
20260906081003 23 340 0.0 4.8 0.00 0.00 0.00 86 1012.7
20260906080507 23 77 0.0 4.8 0.00 0.00 0.00 86 1012.7
20260906080006 23 31 0.0 3.2 0.00 0.00 0.00 86 1012.7
20260906075507 23 340 0.0 3.2 0.00 0.00 0.00 87 1012.6
20260906075008 23 68 0.0 3.2 0.00 0.00 0.00 87 1012.5
20260906074515 23 68 0.0 3.2 0.00 0.00 0.00 87 1012.6
20260906074011 23 30 0.0 3.2 0.00 0.00 0.00 88 1012.5
20260906073512 23 282 0.0 0.0 0.00 0.00 0.00 88 1012.5
20260906073019 23 282 0.0 0.0 0.00 0.00 0.00 88 1012.5
20260906072512 23 282 0.0 0.0 0.00 0.00 0.00 88 1012.5
20260906072014 23 282 0.0 0.0 0.00 0.00 0.00 88 1012.6
20260906071527 23 282 0.0 0.0 0.00 0.00 0.00 87 1012.6
20260906071016 23 282 0.0 1.6 0.00 0.00 0.00 87 1012.4
20260906070504 23 282 0.0 3.2 0.00 0.00 0.00 87 1012.3
20260906070004 23 282 0.0 3.2 0.00 0.00 0.00 87 1012.4
20260906065510 23 280 1.6 3.2 0.00 0.00 0.00 87 1012.5
20260906065004 23 253 0.0 0.0 0.00 0.00 0.00 87 1012.4
20260906064514 23 249 0.0 0.0 0.00 0.00 0.00 86 1012.5
20260906064008 23 249 0.0 3.2 0.00 0.00 0.00 86 1012.5
20260906063509 23 249 0.0 3.2 0.00 0.00 0.00 86 1012.7
20260906063018 23 249 0.0 0.0 0.00 0.00 0.00 85 1012.8
20260906062513 24 249 0.0 0.0 0.00 0.00 0.00 85 1012.9
20260906062014 24 249 0.0 0.0 0.00 0.00 0.00 85 1012.8
20260906061526 24 249 0.0 0.0 0.00 0.00 0.00 85 1012.9
20260906061015 24 249 0.0 3.2 0.00 0.00 0.00 85 1012.9
20260906060517 24 249 0.0 3.2 0.00 0.00 0.00 84 1012.9
20260906060035 24 249 0.0 0.0 0.00 0.00 0.00 84 1012.9
20260906055503 24 281 0.0 0.0 0.00 0.00 0.00 84 1012.8
20260906055006 24 284 0.0 3.2 0.00 0.00 0.00 84 1012.8
20260906054507 24 284 0.0 4.8 0.00 0.00 0.00 83 1012.8
20260906054006 25 284 1.6 4.8 0.00 0.00 0.00 83 1012.7
20260906053510 25 287 3.2 4.8 0.00 0.00 0.00 83 1012.7
20260906053016 25 275 0.0 4.8 0.00 0.00 0.00 83 1012.8
20260906052513 25 280 1.6 4.8 0.00 0.00 0.00 83 1012.8
20260906052010 25 232 0.0 3.2 0.00 0.00 0.00 82 1012.8
20260906051524 25 208 0.0 6.4 0.00 0.00 0.00 81 1012.8
20260906051011 25 288 3.2 6.4 0.00 0.00 0.00 81 1012.8
20260906050515 25 288 1.6 3.2 0.00 0.00 0.00 80 1012.8
20260906050027 25 204 0.0 3.2 0.00 0.00 0.00 80 1012.8
20260906045516 25 353 0.0 0.0 0.00 0.00 0.00 79 1012.8
20260906045015 25 10 0.0 0.0 0.00 0.00 0.00 79 1012.7
20260906044533 25 7 0.0 0.0 0.00 0.00 0.00 79 1012.7
20260906044003 25 7 0.0 0.0 0.00 0.00 0.00 79 1012.8
20260906043507 25 49 0.0 0.0 0.00 0.00 0.00 79 1012.5
20260906043010 25 81 0.0 0.0 0.00 0.00 0.00 80 1012.2
20260906042507 25 81 0.0 0.0 0.00 0.00 0.00 81 1012.2
20260906042011 25 81 0.0 3.2 0.00 0.00 0.00 81 1012.3
20260906041521 25 81 0.0 3.2 0.00 0.00 0.00 81 1012.2
20260906041016 25 81 1.6 3.2 0.00 0.00 0.00 82 1012.0
20260906040514 25 86 0.0 3.2 0.00 0.00 0.00 82 1012.2
20260906040031 25 87 0.0 3.2 0.00 0.00 0.00 82 1012.3
20260906035516 25 86 0.0 4.8 0.00 0.00 0.00 81 1012.3
20260906035016 26 103 0.0 4.8 0.00 0.00 0.00 81 1011.9
20260906034541 26 103 0.0 3.2 0.00 0.00 0.00 80 1012.3
20260906034017 26 97 0.0 3.2 0.00 0.00 0.00 80 1012.3
20260906033515 26 127 1.6 4.8 0.00 0.00 0.00 80 1012.4
20260906033023 26 75 0.0 4.8 0.00 0.00 0.00 80 1012.4
20260906032507 26 70 0.0 3.2 0.00 0.00 0.00 80 1012.2
20260906032009 26 70 0.0 4.8 0.00 0.00 0.00 80 1012.2
20260906031518 26 72 3.2 4.8 0.00 0.00 0.00 80 1012.2
20260906031012 26 70 1.6 3.2 0.00 0.00 0.00 80 1012.1
20260906030512 26 114 0.0 0.0 0.00 0.00 0.00 80 1012.2
20260906030024 26 114 0.0 0.0 0.00 0.00 0.00 81 1012.4
20260906025514 26 115 0.0 0.0 0.00 0.00 0.00 79 1012.5
20260906025020 26 115 0.0 0.0 0.00 0.00 0.00 80 1012.4
20260906024527 26 114 0.0 0.0 0.00 0.00 0.00 81 1012.5
20260906024015 26 114 0.0 0.0 0.00 0.00 0.00 80 1012.7
20260906023518 26 114 0.0 0.0 0.00 0.00 0.00 80 1012.5
20260906023032 26 114 0.0 0.0 0.00 0.00 0.00 81 1012.5
20260906022515 26 116 0.0 0.0 0.00 0.00 0.00 81 1012.5
20260906022008 26 170 0.0 0.0 0.00 0.00 0.00 80 1012.5
20260906021517 26 170 0.0 0.0 0.00 0.00 0.00 80 1012.5
20260906021009 26 170 0.0 0.0 0.00 0.00 0.00 80 1012.7
20260906020510 26 170 0.0 0.0 0.00 0.00 0.00 79 1012.6
20260906020018 26 170 0.0 0.0 0.00 0.00 0.00 80 1012.5
20260906015513 26 170 0.0 0.0 0.00 0.00 0.00 80 1012.5
20260906015013 26 170 0.0 3.2 0.00 0.00 0.00 80 1012.3
20260906014538 26 170 0.0 3.2 0.00 0.00 0.00 80 1012.3
20260906014018 26 87 0.0 3.2 0.00 0.00 0.00 80 1012.2
20260906013515 26 48 0.0 0.0 0.00 0.00 0.00 79 1012.2
20260906013032 26 48 0.0 0.0 0.00 0.00 0.00 79 1012.2
20260906012520 26 48 0.0 0.0 0.00 0.00 0.00 78 1012.2
20260906012019 26 48 0.0 0.0 0.00 0.00 0.00 78 1012.1
20260906011539 26 48 0.0 0.0 0.00 0.00 0.00 78 1012.1
20260906011007 26 49 0.0 0.0 0.00 0.00 0.00 1011.8
20260906010509 26 49 0.0 0.0 0.00 0.00 0.00 77 1011.6
20260906010016 26 49 0.0 0.0 0.00 0.00 0.00 77 1011.7
20260906005513 26 49 0.0 0.0 0.00 0.00 0.00 77 1011.7
20260906005016 26 49 0.0 0.0 0.00 0.00 0.00 76 1011.8
20260906004537 27 49 0.0 0.0 0.00 0.00 0.00 76 1011.8
20260906004015 27 49 0.0 0.0 0.00 0.00 0.00 74 1011.7
20260906003514 27 49 0.0 0.0 0.00 0.00 0.00 73 1011.7
20260906003045 27 49 0.0 0.0 0.00 0.00 0.00 72 1011.6
20260906002515 27 49 0.0 0.0 0.00 0.00 0.00 72 1011.6
20260906002016 27 50 0.0 0.0 0.00 0.00 0.00 72 1011.7
20260906001533 28 50 0.0 0.0 0.00 0.00 0.00 71 1011.8
20260906001015 28 49 0.0 0.0 0.00 0.00 0.00 71 1011.9
20260906000518 28 49 0.0 0.0 0.00 0.00 0.00 70 1011.8
20260906000016 28 49 0.0 0.0 0.00 0.00 0.00 71 1011.8
20260905235510 28 49 0.0 0.0 0.00 0.00 0.00 70 1011.8
20260905235012 28 50 0.0 0.0 0.00 0.00 0.00 70 1011.9
20260905234522 28 50 0.0 1.6 0.00 0.00 0.00 70 1012.0
20260905234013 28 50 0.0 1.6 0.00 0.00 0.00 69 1011.9
20260905233512 28 34 0.0 3.2 0.00 0.00 0.00 68 1012.1
20260905233029 28 34 0.0 3.2 0.00 0.00 0.00 68 1012.1
20260905232515 28 20 0.0 4.8 0.00 0.00 0.00 67 1012.0
20260905232017 29 53 1.6 4.8 0.00 0.00 0.00 67 1011.9
20260905231537 29 68 0.0 3.2 0.00 0.00 0.00 67 1012.0
20260905231017 29 72 0.0 3.2 0.00 0.00 0.00 66 1011.9
20260905230517 29 62 0.0 3.2 0.00 0.00 0.00 66 1011.8
20260905230035 29 43 0.0 8.0 0.00 0.00 0.00 66 1011.8
20260905225522 29 84 1.6 8.0 0.00 0.00 0.00 66 1011.9
20260905225013 29 78 0.0 6.4 0.00 0.00 0.00 66 1011.9
20260905224527 29 47 0.0 6.4 0.00 0.00 0.00 66 1011.9
20260905224013 29 74 1.6 6.4 0.00 0.00 0.00 66 1011.8
20260905223515 29 22 0.0 6.4 0.00 0.00 0.00 66 1011.9
20260905223024 29 51 0.0 6.4 0.00 0.00 0.00 66 1011.9
20260905222514 28 75 1.6 6.4 0.00 0.00 0.00 66 1011.8
20260905222017 28 68 0.0 4.8 0.00 0.00 0.00 65 1011.7
20260905221528 29 62 0.0 6.4 0.00 0.00 0.00 65 1011.7
20260905221017 29 63 1.6 6.4 0.00 0.00 0.00 65 1011.7
20260905220516 29 54 0.0 6.4 0.00 0.00 0.00 65 1011.7
20260905220031 29 76 1.6 6.4 0.00 0.00 0.00 64 1011.7
20260905215517 29 58 1.6 6.4 0.00 0.00 0.00 64 1011.7
20260905215018 29 51 1.6 6.4 0.00 0.00 0.00 63 1011.7
20260905214533 29 24 0.0 6.4 0.00 0.00 0.00 63 1011.7
20260905214010 29 18 0.0 9.7 0.00 0.00 0.00 62 1011.7
20260905213515 29 2 0.0 9.7 0.00 0.00 0.00 62 1011.6
20260905213037 30 38 1.6 12.9 0.00 0.00 0.00 62 1011.7
20260905212518 30 75 1.6 12.9 0.00 0.00 0.00 61 1011.7
20260905212017 30 82 0.0 11.3 0.00 0.00 0.00 61 1011.6
20260905211508 30 19 1.6 11.3 0.00 0.00 0.00 60 1011.7
20260905211006 30 313 3.2 6.4 0.00 0.00 0.00 59 1011.6
20260905210504 30 307 1.6 16.1 0.00 0.00 0.00 60 1011.7
20260905210012 30 360 1.6 19.3 0.00 0.00 0.00 60 1011.6
20260905205504 30 91 6.4 19.3 0.00 0.00 0.00 59 1011.6
20260905205009 30 67 3.2 19.3 0.00 0.00 0.00 59 1011.6
20260905204518 30 251 0.0 12.9 0.00 0.00 0.00 58 1011.6
20260905204010 31 51 1.6 12.9 0.00 0.00 0.00 57 1011.5
20260905203512 31 11 3.2 9.7 0.00 0.00 0.00 59 1011.6
20260905203023 30 60 1.6 12.9 0.00 0.00 0.00 58 1011.6
20260905202511 31 26 1.6 12.9 0.00 0.00 0.00 57 1011.7
20260905202015 31 265 3.2 12.9 0.00 0.00 0.00 54 1011.7
20260905201512 31 122 0.0 12.9 0.00 0.00 0.00 54 1011.6
20260905201003 31 300 1.6 12.9 0.00 0.00 0.00 54 1011.6
20260905200504 31 84 0.0 4.8 0.00 0.00 0.00 53 1011.7
20260905200008 31 188 0.0 4.8 0.00 0.00 0.00 51 1011.9
20260905195506 31 162 0.0 4.8 0.00 0.00 0.00 53 1012.0
20260905195006 31 172 0.0 4.8 0.00 0.00 0.00 53 1012.2
20260905194512 31 238 0.0 1.6 0.00 0.00 0.00 54 1012.4
20260905194010 31 287 0.0 1.6 0.00 0.00 0.00 53 1012.4
20260905193514 31 227 0.0 6.4 0.00 0.00 0.00 53 1012.5
20260905193017 31 205 0.0 6.4 0.00 0.00 0.00 51 1012.3
20260905192518 31 190 0.0 4.8 0.00 0.00 0.00 52 1012.4
20260905192013 31 142 0.0 4.8 0.00 0.00 0.00 51 1012.4
20260905191523 31 109 0.0 3.2 0.00 0.00 0.00 51 1012.4
20260905191016 31 117 0.0 3.2 0.00 0.00 0.00 51 1012.5
20260905190502 31 126 0.0 3.2 0.00 0.00 0.00 51 1012.5
20260905190010 32 182 0.0 3.2 0.00 0.00 0.00 51 1012.5
20260905185506 31 203 0.0 3.2 0.00 0.00 0.00 52 1012.7
20260905185005 31 195 0.0 3.2 0.00 0.00 0.00 52 1012.7
20260905184512 31 194 0.0 3.2 0.00 0.00 0.00 53 1012.8
20260905184007 31 133 0.0 6.4 0.00 0.00 0.00 52 1012.9
20260905183510 31 200 0.0 6.4 0.00 0.00 0.00 52 1012.9
20260905183016 31 197 0.0 3.2 0.00 0.00 0.00 53 1013.1
20260905182509 31 124 0.0 4.8 0.00 0.00 0.00 53 1013.2
20260905182011 31 93 0.0 4.8 0.00 0.00 0.00 54 1013.1
20260905181531 31 139 0.0 4.8 0.00 0.00 0.00 54 1013.2
20260905181014 31 96 0.0 4.8 0.00 0.00 0.00 55 1013.2
20260905180515 30 124 0.0 6.4 0.00 0.00 0.00 54 1013.2
20260905180029 30 129 0.0 6.4 0.00 0.00 0.00 55 1013.2
20260905175514 30 137 1.6 6.4 0.00 0.00 0.00 54 1013.3
20260905175006 30 182 0.0 9.7 0.00 0.00 0.00 57 1013.3
20260905174513 30 99 3.2 9.7 0.00 0.00 0.00 56 1013.4
20260905174006 30 84 1.6 9.7 0.00 0.00 0.00 59 1013.4
20260905173508 30 127 1.6 11.3 0.00 0.00 0.00 59 1013.4
20260905173013 30 84 4.8 9.7 0.00 0.00 0.00 61 1013.4
20260905172511 30 103 1.6 9.7 0.00 0.00 0.00 61 1013.5
20260905172014 30 157 1.6 9.7 0.00 0.00 0.00 60 1013.6
20260905171525 30 60 4.8 9.7 0.00 0.00 0.00 60 1013.5
20260905171014 29 123 1.6 4.8 0.00 0.00 0.00 64 1013.7
20260905170514 30 88 0.0 3.2 0.00 0.00 0.00 62 1013.7
20260905170026 29 141 0.0 3.2 0.00 0.00 0.00 61 1013.8
20260905165520 28 132 0.0 3.2 0.00 0.00 0.00 65 1013.9
20260905165018 28 136 0.0 4.8 0.00 0.00 0.00 64 1013.8
20260905164532 28 139 0.0 4.8 0.00 0.00 0.00 66 1013.7
20260905164004 28 125 0.0 4.8 0.00 0.00 0.00 67 1013.8
20260905163507 28 122 0.0 0.0 0.00 0.00 0.00 71 1013.8
20260905163013 28 62 0.0 3.2 0.00 0.00 0.00 70 1013.6
20260905162513 28 83 0.0 3.2 0.00 0.00 0.00 69 1013.6
20260905162011 27 91 0.0 3.2 0.00 0.00 0.00 70 1013.6
20260905161517 27 92 0.0 3.2 0.00 0.00 0.00 70 1013.5
20260905161012 27 196 0.0 3.2 0.00 0.00 0.00 71 1013.4
20260905160513 27 183 0.0 3.2 0.00 0.00 0.00 70 1013.4
20260905160038 27 285 0.0 3.2 0.00 0.00 0.00 70 1013.6
20260905155517 27 134 0.0 3.2 0.00 0.00 0.00 73 1013.8
20260905155015 26 190 0.0 3.2 0.00 0.00 0.00 74 1014.0
20260905154530 26 302 0.0 0.0 0.00 0.00 0.00 75 1014.1
20260905154020 26 57 0.0 3.2 0.00 0.00 0.00 74 1013.7
20260905153519 26 159 0.0 4.8 0.00 0.00 0.00 75 1013.8
20260905153010 26 169 0.0 4.8 0.00 0.00 0.00 75 1013.4
20260905152508 26 209 0.0 4.8 0.00 0.00 0.00 75 1013.4
20260905152007 26 233 0.0 9.7 0.00 0.00 0.00 75 1013.3
20260905151515 26 223 0.0 9.7 0.00 0.00 0.00 75 1013.4
20260905151013 26 180 1.6 9.7 0.00 0.00 0.00 75 1013.5
20260905150511 26 195 0.0 4.8 0.00 0.00 0.00 75 1013.8
20260905150022 25 214 0.0 4.8 0.00 0.00 0.00 77 1014.0
20260905145512 25 209 0.0 4.8 0.00 0.00 0.00 77 1014.2
20260905145015 25 199 0.0 0.0 0.00 0.00 0.00 1014.5
20260905144535 25 236 0.0 0.0 0.00 0.00 0.00 75 1014.5
20260905144015 25 236 0.0 0.0 0.00 0.00 0.00 75 1014.6
20260905143516 25 246 0.0 0.0 0.00 0.00 0.00 75 1014.8
20260905143047 25 219 0.0 3.2 0.00 0.00 0.00 74 1015.0
20260905142516 25 219 0.0 3.2 0.00 0.00 0.00 74 1015.0
20260905142007 25 188 0.0 0.0 0.00 0.00 0.00 77 1014.8
20260905141516 24 164 0.0 0.0 0.00 0.00 0.00 77 1014.8
20260905141010 24 146 0.0 0.0 0.00 0.00 0.00 77 1015.1
20260905140514 24 139 0.0 4.8 0.00 0.00 0.00 78 1015.0
20260905140018 24 123 0.0 4.8 0.00 0.00 0.00 78 1015.1
20260905135511 24 148 0.0 3.2 0.00 0.00 0.00 78 1015.2
20260905135012 24 111 0.0 0.0 0.00 0.00 0.00 78 1015.3
20260905134525 24 132 0.0 3.2 0.00 0.00 0.00 78 1015.4
20260905134015 24 106 0.0 3.2 0.00 0.00 0.00 79 1015.5
20260905133518 25 115 0.0 3.2 0.00 0.00 0.00 79 1015.3
20260905133030 25 121 0.0 3.2 0.00 0.00 0.00 79 1015.2
20260905132514 25 83 0.0 3.2 0.00 0.00 0.00 81 1015.2
20260905132022 24 78 0.0 3.2 0.00 0.00 0.00 82 1015.4
20260905131544 24 96 0.0 1.6 0.00 0.00 0.00 81 1015.5
20260905131008 24 112 0.0 3.2 0.00 0.00 0.00 82 1015.6
20260905130508 24 132 0.0 3.2 0.00 0.00 0.00 82 1015.7
20260905130018 24 291 0.0 3.2 0.00 0.00 0.00 83 1015.7
20260905125511 24 67 0.0 11.3 0.00 0.00 0.00 83 1015.6
20260905125011 24 75 3.2 11.3 0.00 0.00 0.00 82 1015.6
20260905124527 24 142 0.0 4.8 0.00 0.00 0.00 83 1015.6
20260905124018 24 101 0.0 4.8 0.00 0.00 0.00 83 1015.3
20260905123514 24 113 0.0 4.8 0.00 0.00 0.00 83 1015.3
20260905123028 24 82 0.0 16.1 0.00 0.00 0.00 82 1015.3
20260905122518 24 77 1.6 12.9 0.00 0.00 0.00 83 1015.2
20260905122015 24 149 0.0 4.8 0.00 0.00 0.00 83 1014.9
20260905121508 24 81 0.0 6.4 0.00 0.00 0.00 83 1015.1
20260905121008 24 128 0.0 6.4 0.00 0.00 0.00 84 1014.9
20260905120508 24 78 0.0 3.2 0.00 0.00 0.00 86 1014.9
20260905120015 24 217 0.0 8.0 0.00 0.00 0.00 86 1014.8
20260905115509 23 244 1.6 8.0 0.00 0.00 0.00 86 1014.6